Погода в Коропце

Украина / Тернопольская область     48˚56′19″N   25˚10′45″E
темп.,
°C
ветер,
м/с
пор.,
м/с
влажн.,
%
обл.,
%
осадки,
мм/ч
давл.,
гПа
погр.,
м
16 января, сб
сб1623:00−10˚з41192100 0.0 1017336
02:00−9˚з41192100 0.1 1017443
05:00−11˚сз71290100 0.2 1017631
08:00−14˚сз61092100 0.3 1019528
11:00−12˚зсз588791 0.0 1020619
14:00−10˚зсз588496 0.1 1018735
17:00−12˚зсз259292 0.0 1018129
20:00−11˚зюз249177 0.0 101796
17 января, вс
вс1723:00−10˚ююз359085 0.0 1017134
02:00−10˚зюз228389 0.0 101639
05:00−11˚юз228244 0.0 101636
08:00−9˚зюз118272 0.0 101728
11:00−7˚зюз237696 0.0 1018164
14:00−6˚зсз358388 0.0 1018514
17:00−9˚сз479449 0.0 1019171
20:00−12˚сз369445 0.0 1021192
18 января, пн
пн1823:00−12˚зсз4795100 0.0 1022273
02:00−12˚сз4794100 0.0 1022337
05:00−13˚сз4892100 0.0 1022371
08:00−13˚сз4993100 0.0 1024413
11:00−11˚сз5889100 0.0 1024489
14:00−10˚сз4786100 0.1 1023517
17:00−12˚сз349251 0.0 1024118
20:00−14˚зсз239527 0.0 102592
19 января, вт
вт1923:00−14˚зсз259373 0.0 1025136
02:00−14˚зсз239460 0.0 102668
05:00−14˚зсз12944 0.0 102536
08:00−14˚зюз128812 0.0 102627
11:00−10˚юз227737 0.0 1025146
14:00−8˚юз238155 0.0 1024243
17:00−7˚ю2296100 0.6 102474
20:00−7˚ю239398 0.9 102578
20 января, ср
ср2023:00−9˚ю238154 0.0 102529
02:00−9˚ю238243 0.0 102524
05:00−9˚ююв238276 0.0 102433
08:00−7˚ююв358487 0.0 1023103
11:00−4˚ююв3681100 0.0 1023184
14:00−2˚юв358095 0.0 1021187
17:00−4˚юв338257 0.0 102142
20:00−5˚ююв338329 0.0 102140